Volver al catálogo

ONEWEB-0703

ActivoComunicacionesPO
NORAD 56724·PAYLOAD·🇬🇧 United Kingdom

Lanzado May 20, 2023 desde Vandenberg Space Force Base

Loading…

Próximos Pases (próximas 24 horas)

TLE

ActualizadoSource: CelesTrak SupGP

Época: Sep 14, 2026, 20:40 UTC

1 56724C 23068Q   26257.86160139  .00002708  00000+0  72017-2 0  2571
2 56724  87.8994 241.3227 0002841  76.1781 321.0573 13.15548543    18

Sigue ONEWEB-0703 en tiempo real con AllMySat

Download on the App Store